Weather History for PAAK - December, 2012

Change the Weather History Date:

Friday, December 21, 2012

  Actual Average (PADK) Record (PADK)
Temperature  
Mean Temperature 37 °F -  
Max Temperature 42 °F 38 °F 48 °F (1959)
Min Temperature 32 °F 29 °F 10 °F (1999)
Degree Days  
Heating Degree Days 28    
Moisture  
Dew Point -12 °F    
Average Humidity 12    
Maximum Humidity 12    
Minimum Humidity 11    
Precipitation  
Precipitation 0.00 in - - ()
Sea Level Pressure  
Sea Level Pressure 29.92 in    
Wind  
Wind Speed 16 mph (West)    
Max Wind Speed 30 mph    
Max Gust Speed 38 mph    
Visibility 10 miles    
Events      
Averages and records for this station are not official NWS values.
T = Trace of Precipitation, MM = Missing Value Source: NWS Daily Summary

Daily Weather History Graph

Daily Weather History Graph

Search for Another Location

Airport or City:

Trip Planner

Search our weather history database for the weather conditions in past years. The results will help you decide how hot, cold, wet, or windy it might be!

Date:

Astronomy

Dec. 21, 2012 Rise Set
Actual Time 9:44 AM HST 5:26 PM HST
Civil Twilight 9:02 AM HST 6:07 PM HST
Nautical Twilight 8:18 AM HST 6:51 PM HST
Astronomical Twilight 7:37 AM HST 7:33 PM HST
Moon 1:48 PM HST (12/21) 3:13 AM HST (12/21)
Length of Visible Light 9h 04m
Length of Day
7h 42m
Waxing Gibbous, 66% of the Moon is Illuminated
Dec 21
Waxing Gibbous
Dec 28
Full
Jan 4
Last Quarter
Jan 11
New
Jan 18
First Quarter

Hourly Weather History & Observations

Time (HST) Temp. Windchill Dew Point Humidity Pressure Visibility Wind Dir Wind Speed Gust Speed Precip Events Conditions
12:16 AM 39.2 °F 28.3 °F -11.2 °F 11% 29.51 in 10.0 mi WNW 25.3 mph 33.4 mph N/A   Overcast
12:36 AM 39.2 °F 27.6 °F -11.2 °F 11% 29.53 in 10.0 mi WNW 28.8 mph 38.0 mph N/A   Overcast
12:56 AM 37.4 °F 25.0 °F -11.2 °F 12% 29.55 in 10.0 mi WNW 29.9 mph 35.7 mph N/A   Mostly Cloudy
1:16 AM 37.4 °F 26.4 °F -11.2 °F 12% 29.57 in 10.0 mi WNW 23.0 mph 33.4 mph N/A   Scattered Clouds
1:36 AM 37.4 °F 26.6 °F -11.2 °F 12% 29.60 in 10.0 mi WNW 21.9 mph 28.8 mph N/A   Scattered Clouds
1:56 AM 37.4 °F 27.2 °F -11.2 °F 12% 29.62 in 10.0 mi WNW 19.6 mph 33.4 mph N/A   Overcast
2:16 AM 37.4 °F 25.6 °F -11.2 °F 12% 29.63 in 10.0 mi West 26.5 mph 31.1 mph N/A   Mostly Cloudy
2:36 AM 37.4 °F 27.2 °F -11.2 °F 12% 29.65 in 10.0 mi WNW 19.6 mph 28.8 mph N/A   Overcast
2:56 AM 37.4 °F 27.2 °F -11.2 °F 12% 29.67 in 10.0 mi WNW 19.6 mph 26.5 mph N/A   Mostly Cloudy
3:16 AM 35.6 °F 23.7 °F -13.0 °F 12% 29.69 in 10.0 mi WNW 24.2 mph 29.9 mph N/A   Overcast
3:36 AM 37.4 °F 27.2 °F -11.2 °F 12% 29.71 in 10.0 mi WNW 19.6 mph 29.9 mph N/A   Overcast
3:56 AM 37.4 °F 26.9 °F -11.2 °F 12% 29.72 in 9.0 mi WNW 20.7 mph 28.8 mph N/A   Overcast
4:16 AM 37.4 °F 26.6 °F -13.0 °F 11% 29.73 in 10.0 mi West 21.9 mph 29.9 mph N/A   Overcast
4:36 AM 35.6 °F 24.8 °F -13.0 °F 12% 29.75 in 10.0 mi West 19.6 mph 26.5 mph N/A   Mostly Cloudy
4:56 AM 37.4 °F 27.2 °F -13.0 °F 11% 29.76 in 10.0 mi WNW 19.6 mph 26.5 mph N/A   Overcast
5:16 AM 37.4 °F 27.8 °F -11.2 °F 12% 29.76 in 10.0 mi WNW 17.3 mph 28.8 mph N/A   Overcast
5:36 AM 37.4 °F 27.5 °F -11.2 °F 12% 29.77 in 10.0 mi WNW 18.4 mph 23.0 mph N/A   Overcast
5:56 AM 37.4 °F 26.4 °F -11.2 °F 12% 29.79 in 10.0 mi West 23.0 mph 28.8 mph N/A   Overcast
6:16 AM 35.6 °F 27.5 °F -13.0 °F 12% 29.80 in 10.0 mi West 11.5 mph - N/A   Overcast
6:36 AM 35.6 °F 28.6 °F -13.0 °F 12% 29.81 in 10.0 mi WNW 9.2 mph 17.3 mph N/A   Overcast
6:56 AM 37.4 °F 28.5 °F -13.0 °F 11% 29.82 in 10.0 mi NW 15.0 mph 21.9 mph N/A   Overcast
7:16 AM 37.4 °F 27.8 °F -11.2 °F 12% 29.83 in 10.0 mi WNW 17.3 mph 25.3 mph N/A   Overcast
7:36 AM 37.4 °F 27.5 °F -13.0 °F 11% 29.83 in 10.0 mi WNW 18.4 mph 27.6 mph N/A   Mostly Cloudy
7:56 AM 35.6 °F 25.5 °F -13.0 °F 12% 29.84 in 10.0 mi WNW 17.3 mph 27.6 mph N/A   Partly Cloudy
8:16 AM 35.6 °F 25.9 °F -13.0 °F 12% 29.86 in 10.0 mi WNW 16.1 mph - N/A   Partly Cloudy
8:36 AM 35.6 °F 26.2 °F -13.0 °F 12% 29.87 in 10.0 mi WNW 15.0 mph - N/A   Scattered Clouds
8:56 AM 35.6 °F 28.0 °F -13.0 °F 12% 29.89 in 10.0 mi WNW 10.4 mph - N/A   Scattered Clouds
9:16 AM 35.6 °F 27.1 °F -14.8 °F 11% 29.90 in 10.0 mi WNW 12.7 mph - N/A   Scattered Clouds
9:36 AM 35.6 °F 28.0 °F -13.0 °F 12% 29.92 in 10.0 mi WNW 10.4 mph - N/A   Mostly Cloudy
9:56 AM 37.4 °F 30.8 °F -13.0 °F 11% 29.93 in 10.0 mi WNW 9.2 mph - N/A   Overcast
10:16 AM 37.4 °F 30.3 °F -11.2 °F 12% 29.95 in 10.0 mi West 10.4 mph - N/A   Overcast
10:36 AM 37.4 °F 30.8 °F -11.2 °F 12% 29.95 in 10.0 mi West 9.2 mph - N/A   Overcast
10:56 AM 37.4 °F 32.1 °F -11.2 °F 12% 29.96 in 10.0 mi West 6.9 mph - N/A   Mostly Cloudy
11:16 AM 37.4 °F 32.1 °F -11.2 °F 12% 29.97 in 10.0 mi West 6.9 mph - N/A   Mostly Cloudy
11:36 AM 39.2 °F 34.2 °F -11.2 °F 11% 29.97 in 10.0 mi WNW 6.9 mph - N/A   Scattered Clouds
11:56 AM 39.2 °F 33.6 °F -9.4 °F 12% 29.98 in 10.0 mi West 8.1 mph - N/A   Mostly Cloudy
12:16 PM 39.2 °F 33.0 °F -9.4 °F 12% 29.99 in 10.0 mi West 9.2 mph - N/A   Scattered Clouds
12:36 PM 39.2 °F 34.2 °F -9.4 °F 12% 30.00 in 10.0 mi West 6.9 mph - N/A   Clear
12:56 PM 41.0 °F 37.1 °F -9.4 °F 12% 29.99 in 10.0 mi SSW 5.8 mph - N/A   Clear
1:16 PM 42.8 °F 40.1 °F -9.4 °F 11% 29.99 in 10.0 mi SW 4.6 mph - N/A   Clear
1:36 PM 42.8 °F 38.6 °F -9.4 °F 11% 29.99 in 10.0 mi SW 6.9 mph - N/A   Clear
1:56 PM 42.8 °F 40.1 °F -9.4 °F 11% 30.00 in 10.0 mi WSW 4.6 mph - N/A   Clear
2:16 PM 42.8 °F 39.3 °F -7.6 °F 12% 30.00 in 10.0 mi West 5.8 mph - N/A   Clear
2:36 PM 42.8 °F 39.3 °F -9.4 °F 11% 30.00 in 10.0 mi West 5.8 mph - N/A   Clear
2:56 PM 42.8 °F 40.1 °F -9.4 °F 11% 30.01 in 10.0 mi West 4.6 mph - N/A   Clear
3:16 PM 42.8 °F - -9.4 °F 11% 30.01 in 10.0 mi Calm Calm - N/A   Clear
3:36 PM 42.8 °F 40.1 °F -9.4 °F 11% 30.02 in 10.0 mi West 4.6 mph - N/A   Clear
3:56 PM 39.2 °F 34.2 °F -9.4 °F 12% 30.02 in 10.0 mi WSW 6.9 mph - N/A   Clear
4:16 PM 37.4 °F 34.9 °F -11.2 °F 12% 30.02 in 10.0 mi West 3.5 mph - N/A   Clear
4:36 PM 33.8 °F 28.6 °F -14.8 °F 12% 30.02 in 10.0 mi WSW 5.8 mph - N/A   Clear
4:56 PM 33.8 °F 27.7 °F -14.8 °F 12% 30.02 in 10.0 mi SW 6.9 mph - N/A   Clear
5:16 PM 33.8 °F 27.0 °F -14.8 °F 12% 30.03 in 10.0 mi SW 8.1 mph - N/A   Clear
5:36 PM 33.8 °F 27.7 °F -14.8 °F 12% 30.04 in 10.0 mi SW 6.9 mph - N/A   Clear
5:56 PM 33.8 °F 30.8 °F -14.8 °F 12% 30.05 in 10.0 mi West 3.5 mph - N/A   Clear
6:16 PM 32.0 °F 26.4 °F -16.6 °F 12% 30.06 in 10.0 mi SW 5.8 mph - N/A   Clear
6:36 PM 33.8 °F 27.0 °F -14.8 °F 12% 30.06 in 10.0 mi SW 8.1 mph - N/A   Clear
6:56 PM 33.8 °F 28.6 °F -14.8 °F 12% 30.07 in 10.0 mi WSW 5.8 mph - N/A   Clear
7:16 PM 32.0 °F 26.4 °F -16.6 °F 12% 30.08 in 10.0 mi SW 5.8 mph - N/A   Scattered Clouds
7:36 PM 33.8 °F 28.6 °F -14.8 °F 12% 30.08 in 10.0 mi WSW 5.8 mph - N/A   Scattered Clouds
7:56 PM 35.6 °F 29.9 °F -14.8 °F 11% 30.08 in 10.0 mi WSW 6.9 mph - N/A   Scattered Clouds
8:16 PM 35.6 °F 29.9 °F -13.0 °F 12% 30.09 in 10.0 mi WSW 6.9 mph - N/A   Mostly Cloudy
8:36 PM 35.6 °F - -13.0 °F 12% 30.09 in 10.0 mi Calm Calm - N/A   Mostly Cloudy
8:56 PM 35.6 °F 32.8 °F -13.0 °F 12% 30.08 in 10.0 mi NW 3.5 mph - N/A   Partly Cloudy
9:16 PM 33.8 °F 27.0 °F -14.8 °F 12% 30.09 in 10.0 mi WSW 8.1 mph - N/A   Scattered Clouds
9:36 PM 35.6 °F 27.5 °F -13.0 °F 12% 30.09 in 10.0 mi WNW 11.5 mph - N/A   Mostly Cloudy
9:56 PM 35.6 °F 28.6 °F -13.0 °F 12% 30.10 in 10.0 mi WNW 9.2 mph - N/A   Overcast
10:16 PM 35.6 °F 28.0 °F -13.0 °F 12% 30.10 in 10.0 mi West 10.4 mph - N/A   Mostly Cloudy
10:36 PM 35.6 °F 29.9 °F -13.0 °F 12% 30.11 in 10.0 mi WNW 6.9 mph - N/A   Mostly Cloudy
10:56 PM 35.6 °F 28.0 °F -13.0 °F 12% 30.11 in 10.0 mi WNW 10.4 mph - N/A   Mostly Cloudy
11:16 PM 35.6 °F 27.5 °F -14.8 °F 11% 30.11 in 10.0 mi WNW 11.5 mph - N/A   Mostly Cloudy
11:36 PM 33.8 °F 26.4 °F -14.8 °F 12% 30.11 in 10.0 mi WNW 9.2 mph - N/A   Scattered Clouds
11:56 PM 33.8 °F 25.3 °F -14.8 °F 12% 30.11 in 10.0 mi WNW 11.5 mph - N/A   Clear